Powrót do katalogu

DELTA 2 R/B(1)

AktywnyLEO
NORAD 25510·ROCKET BODY·🇺🇸 United States

Wystrzelony Oct 24, 1998 z Cape Canaveral Space Force Station

Loading…

Następne Przeloty (najbliższe 24 godziny)

TLE

ŚwieżeSource: Space-Track

Epoka: Sep 14, 2026, 18:24 UTC

1 25510U 98061C   26257.76667722  .00000525  00000-0  72541-4 0  9997
2 25510  31.4335 155.2239 0304295 236.0222 121.1139 14.44127230464595

Śledź DELTA 2 R/B(1) w czasie rzeczywistym z AllMySat

Download on the App Store